Theta_e
307 310 312 311 311 310 309 311 311 312 312 309 309 309 311 311 311 310 309 310 311 311 311 311 310 316 323 326 329 329 327 326 323 320 315 313 312 311 310 310 310 311 312 312
307 310 309 309 310 312 311 310 311 311 312 306 308 309 310 310 310 311 310 310 310 310 311 310 309 309 318 323 327 328 328 326 323 320 316 314 312 312 311 310 309 311 312 312
303 307 307 309 310 310 313 312 311 311 311 307 306 308 309 310 310 310 310 310 310 310 310 310 310 308 309 320 325 327 328 327 324 320 316 313 312 311 310 309 309 310 312 312
300 301 303 306 309 310 312 311 310 312 312 313 310 312 313 314 314 312 311 311 310 310 311 311 311 310 309 315 322 324 327 326 324 321 315 313 312 311 310 309 309 309 311 312
301 301 303 305 306 309 311 309 310 310 311 309 309 311 312 313 313 314 314 313 312 312 312 311 312 311 309 314 319 323 325 326 324 320 315 313 314 312 311 310 309 309 310 312
297 301 303 306 307 306 310 309 309 310 311 314 312 313 314 315 314 313 314 314 315 313 313 313 312 311 310 312 318 322 324 325 323 320 315 314 315 313 311 310 309 309 310 311
297 299 303 302 304 308 309 311 314 315 315 315 311 313 314 314 313 313 314 314 314 315 315 314 314 313 310 313 319 322 323 324 323 320 316 316 316 313 311 310 309 309 309 310
301 305 304 303 304 308 309 312 313 311 314 311 309 312 313 312 313 312 312 313 314 315 316 315 313 312 310 312 319 322 322 323 322 320 317 317 316 313 312 310 309 309 309 310
297 298 297 296 303 305 310 311 310 313 309 312 310 309 310 312 313 312 312 313 314 314 311 310 310 311 309 312 318 321 321 321 320 319 318 317 316 313 311 310 309 308 308 309
298 299 297 300 305 306 309 309 311 311 315 313 310 310 312 313 312 313 314 313 312 313 313 310 308 306 307 310 317 320 320 320 319 318 318 317 315 312 311 310 309 308 308 308
295 298 300 303 308 306 307 309 310 310 312 315 313 310 311 313 313 314 313 311 312 313 312 310 306 306 308 311 316 318 318 318 316 316 316 315 314 313 311 309 308 307 307 307
296 299 302 303 305 307 308 308 309 312 312 311 312 312 309 309 309 309 310 306 305 308 311 307 307 310 312 314 316 317 316 317 315 315 315 314 313 312 310 309 308 307 306 308
299 300 300 299 305 305 309 309 308 309 311 313 316 312 309 309 309 308 308 307 306 306 305 309 312 313 314 315 315 314 315 315 314 314 314 313 312 311 309 308 307 307 307 308
298 300 299 300 301 304 307 310 310 309 312 312 313 312 311 311 310 309 309 309 308 306 309 310 312 313 314 314 311 312 313 313 313 313 313 312 311 310 309 308 307 306 306 307
299 300 300 300 301 304 308 309 311 311 310 312 311 317 311 309 309 308 307 308 309 309 308 310 310 310 310 310 310 310 311 311 312 312 312 311 310 310 309 308 307 306 306 307
297 298 299 299 300 301 304 308 310 310 311 311 311 311 310 309 308 309 308 308 309 309 309 309 310 307 307 308 309 309 309 309 311 311 311 311 310 309 308 307 306 305 305 307
295 297 296 299 300 300 304 305 306 310 310 310 313 311 308 309 309 309 309 309 310 310 310 310 309 308 307 306 307 307 307 308 309 310 310 310 310 308 308 307 306 305 305 306
296 296 295 300 299 304 301 300 304 305 306 308 309 309 310 308 308 307 307 307 306 306 309 309 310 309 308 307 306 306 306 308 309 309 310 309 308 307 307 306 305 305 305 306
294 295 295 298 298 299 299 303 305 306 306 304 306 307 307 308 307 307 305 305 305 305 305 305 307 309 309 308 308 306 306 307 308 308 308 308 308 307 306 306 305 305 305 305
294 295 296 295 298 297 300 301 300 301 308 303 303 306 308 306 308 309 305 304 304 303 302 303 302 305 309 309 308 307 307 307 307 307 307 307 308 307 306 306 305 305 305 305
294 295 296 296 296 296 294 301 299 302 305 301 303 304 305 306 302 301 300 300 302 301 300 301 301 301 303 306 307 307 307 308 308 307 307 307 307 307 306 306 305 304 304 305
293 294 294 294 294 295 295 299 297 300 300 300 303 302 303 301 300 299 298 298 298 299 300 299 300 298 299 302 305 305 306 306 306 306 306 306 306 306 306 305 304 304 303 303
292 294 294 294 294 294 294 295 295 294 294 294 295 299 300 301 301 300 300 299 298 296 296 297 296 297 296 300 302 303 303 304 304 304 304 304 305 305 305 304 303 303 302 302
292 292 294 295 294 294 294 293 293 293 293 293 293 293 296 298 297 298 299 300 299 296 294 295 295 294 295 297 299 299 300 302 303 303 303 303 302 302 303 303 303 302 301 301
293 293 293 294 293 294 293 293 293 293 293 292 292 292 292 293 296 297 298 299 299 295 293 294 294 293 293 293 297 297 299 300 301 301 300 300 301 301 301 301 302 302 302 302
293 293 294 293 293 293 292 293 294 293 292 292 292 292 293 294 294 297 298 297 297 295 293 292 293 293 293 293 296 297 297 298 298 298 298 298 298 298 299 299 300 300 301 302
Wind_Speed
15 15 26 27 27 25 25 21 25 20 20 13 20 21 22 19 20 18 16 15 20 21 18 24 28 27 28 27 29 30 30 28 27 24 22 18 16 14 12 11 11 11 9 7
16 27 27 23 26 28 29 29 29 19 13 7 15 22 20 21 22 23 22 23 22 19 18 18 22 29 31 32 31 31 32 31 30 26 24 20 19 14 13 12 12 11 10 9
23 27 19 26 28 29 30 32 27 25 10 10 16 23 25 26 25 24 24 23 23 23 22 19 20 26 30 31 33 33 32 32 32 27 25 19 19 14 14 14 13 12 11 10
19 32 32 29 29 30 29 26 25 24 18 18 13 16 21 16 23 25 24 23 23 22 20 20 20 22 28 33 32 32 32 33 33 31 29 29 26 21 18 19 16 14 13 11
30 26 26 30 34 26 33 20 22 22 20 15 22 12 21 17 25 25 21 21 22 21 21 21 19 25 31 32 34 34 34 34 34 34 32 31 23 21 21 20 18 16 14 13
31 29 25 19 19 29 21 21 21 16 13 12 28 20 20 20 23 17 19 20 20 21 22 21 21 24 28 31 33 35 35 35 34 35 33 32 29 25 24 22 21 19 17 15
26 22 32 29 30 25 25 18 8 10 8 14 20 17 28 14 16 17 22 20 20 18 18 18 17 17 23 29 31 33 34 35 36 36 33 33 30 28 28 27 24 22 19 17
12 18 20 29 30 15 30 26 10 15 12 23 12 14 18 13 22 22 17 15 14 15 12 13 16 17 23 30 34 35 36 36 37 36 34 33 32 29 26 27 25 23 22 20
8 11 25 26 29 25 21 28 30 13 1 7 12 26 23 13 10 11 16 15 17 15 12 13 13 14 20 28 33 36 36 35 38 37 35 34 33 29 26 26 25 23 20 21
6 16 18 19 23 30 23 25 22 16 15 13 15 21 12 16 22 22 17 14 14 12 14 13 12 12 19 25 28 30 31 32 35 35 35 34 32 30 27 28 26 24 23 24
20 13 15 9 8 30 24 23 16 20 18 12 9 11 3 15 17 11 8 5 10 14 11 12 10 13 16 20 24 27 28 29 31 33 33 33 32 30 29 29 27 27 25 26
19 7 13 22 11 17 29 28 27 15 24 21 10 10 4 5 8 7 9 3 5 9 7 10 10 12 16 18 21 24 26 28 30 32 31 31 31 30 29 29 28 27 26 25
6 4 11 16 9 12 9 24 28 26 18 21 13 9 3 6 6 4 5 2 1 1 7 9 10 11 13 18 19 20 24 25 28 30 31 30 31 30 29 29 28 29 28 27
17 4 10 13 19 23 10 16 27 28 19 18 21 15 18 8 8 7 5 2 2 3 6 8 9 10 11 17 17 20 22 24 27 29 30 30 30 30 30 30 29 28 28 28
5 7 9 14 17 14 11 16 25 28 25 21 16 7 19 4 8 5 3 2 2 3 3 8 9 10 9 13 15 17 19 23 26 27 28 29 29 29 30 32 30 29 27 26
8 6 15 15 10 13 11 12 18 25 22 20 17 2 9 7 3 5 2 1 2 3 4 6 9 9 10 11 14 17 18 21 23 24 24 26 28 29 30 32 30 29 28 26
10 7 11 8 11 17 5 5 8 18 23 20 16 16 3 6 6 4 3 3 4 3 5 6 8 8 9 13 16 17 19 22 22 22 23 26 28 28 31 32 32 31 29 27
13 11 6 7 11 4 6 8 10 8 8 13 13 14 14 3 3 4 5 5 5 4 6 6 6 7 11 13 16 18 21 20 20 21 24 26 28 28 29 31 29 28 28 28
11 9 6 4 8 12 6 4 4 4 5 6 1 10 8 4 4 2 5 6 7 6 6 7 9 9 11 13 14 17 18 19 19 19 21 25 28 29 30 29 28 28 27 26
4 10 7 6 5 3 3 7 2 11 2 9 4 5 10 4 8 4 8 9 10 9 9 9 11 8 9 10 13 16 17 17 16 19 21 22 23 27 29 30 29 28 27 26
3 4 10 8 6 7 7 6 4 4 4 13 11 10 6 1 8 9 11 13 11 10 12 12 13 12 10 6 8 10 14 14 16 19 22 23 25 27 27 28 29 31 27 28
5 4 4 4 4 6 8 2 4 8 9 12 11 9 12 13 13 13 13 14 13 12 13 18 15 13 10 7 4 5 4 11 17 21 22 23 24 25 25 27 28 29 30 31
7 9 6 6 4 4 5 4 4 6 9 10 10 11 9 4 9 12 11 11 11 11 12 15 16 17 16 9 6 4 2 7 13 17 19 21 23 24 25 28 30 29 27 25
8 11 5 6 10 10 6 4 3 6 7 7 8 10 7 5 2 10 11 7 8 6 9 12 15 16 17 14 9 6 4 7 12 16 17 18 20 23 24 24 29 28 27 24
10 6 10 11 12 10 12 9 4 5 5 6 7 7 8 7 5 7 10 10 5 2 3 9 8 9 13 16 11 8 2 4 8 11 15 18 21 22 24 23 27 24 26 32
11 14 8 9 11 8 9 6 6 7 8 8 7 7 4 5 6 5 8 10 11 8 3 5 6 10 14 14 11 7 5 2 5 7 11 15 16 21 22 22 20 22 24 25
Wind_Direction
233 225 229 225 224 238 250 248 238 241 229 228 242 255 253 248 244 237 241 244 244 227 228 224 212 210 203 202 199 196 191 188 180 175 175 176 178 179 176 176 175 169 170 165
249 243 242 244 242 239 239 243 248 257 246 222 266 264 256 254 249 250 247 242 237 237 233 215 210 207 205 202 201 196 194 188 185 180 178 175 176 184 179 175 177 176 174 170
270 266 272 236 249 240 234 234 237 245 254 240 272 269 259 253 250 247 244 243 242 238 229 217 202 203 203 202 199 197 193 189 187 182 173 167 167 166 173 178 177 181 175 176
278 264 260 269 256 240 242 234 248 250 249 253 225 276 266 262 242 229 234 232 233 234 233 221 203 199 199 200 197 197 193 190 188 182 174 169 168 168 187 178 178 176 179 178
268 264 246 242 250 256 250 247 245 243 246 264 255 263 266 240 244 240 237 228 232 227 226 222 217 194 197 192 191 192 191 191 188 186 180 174 175 179 172 171 172 174 177 182
280 261 258 274 274 239 267 243 242 233 233 238 240 235 263 243 246 249 247 238 224 228 221 218 211 203 194 191 188 186 187 190 187 187 183 180 177 172 168 171 171 173 175 179
299 284 259 244 259 257 224 222 196 203 201 232 226 224 236 245 233 249 242 239 237 225 215 213 213 192 188 187 184 181 183 188 188 189 186 183 180 173 174 172 172 171 174 177
304 295 233 238 219 264 209 210 205 195 198 234 195 228 226 238 244 249 251 246 250 235 220 207 201 195 192 186 184 181 183 186 186 187 187 183 179 176 177 176 173 175 174 177
313 282 308 291 235 211 226 215 219 245 91 263 214 236 268 257 245 241 246 240 235 221 207 198 198 193 191 189 185 183 183 184 184 186 183 181 179 176 174 174 177 174 171 174
276 301 300 291 257 218 231 218 220 236 240 231 229 237 240 199 227 229 236 225 231 225 212 195 186 188 192 190 188 185 183 183 183 182 181 178 176 174 173 172 170 169 168 175
297 260 274 289 242 211 224 221 217 224 230 230 241 240 270 237 255 248 245 289 253 216 206 188 185 176 182 184 183 183 183 180 178 179 178 174 174 171 170 173 171 172 171 172
288 285 281 289 244 255 218 215 214 221 216 236 247 238 49 341 322 304 277 274 297 271 176 159 171 165 168 174 174 177 179 176 177 178 174 171 169 168 168 169 170 171 169 170
339 270 313 323 272 222 268 218 216 219 232 233 233 233 51 15 340 330 308 295 78 286 145 146 155 164 165 168 168 173 177 173 173 172 170 167 168 167 166 169 166 168 168 169
275 256 265 275 285 292 197 235 224 219 221 224 228 228 256 8 351 348 357 334 90 163 159 150 151 158 161 161 171 173 174 171 170 169 167 167 167 166 163 165 168 166 172 168
290 267 275 286 302 302 301 244 217 230 227 226 229 223 231 14 339 337 334 325 112 90 165 155 154 158 153 158 163 158 171 169 169 167 166 167 164 161 162 169 171 168 170 170
307 294 318 301 323 327 303 273 244 224 232 235 239 289 313 347 337 342 23 40 90 145 169 151 150 154 159 144 146 151 154 163 166 165 165 162 159 159 161 166 168 169 168 168
285 310 328 301 323 317 265 344 314 242 230 230 225 226 67 347 351 36 58 87 81 102 131 143 146 155 160 165 151 150 154 161 163 162 160 159 159 159 164 169 170 172 170 169
266 295 291 305 311 279 321 305 286 291 295 257 244 233 245 9 30 49 51 90 90 75 92 94 112 132 145 153 158 151 158 161 162 162 159 159 161 161 163 167 168 168 170 172
244 259 282 290 311 285 272 348 333 244 67 28 244 252 242 198 159 137 21 38 45 42 31 57 63 98 131 142 148 151 151 155 154 159 162 164 164 162 165 167 168 170 169 172
257 247 245 293 284 284 66 203 193 309 123 2 329 255 235 149 216 115 51 37 44 33 29 32 36 66 106 129 147 148 155 159 165 165 164 164 166 166 169 170 169 170 173 174
270 248 252 257 268 283 358 345 331 339 44 5 24 28 27 114 33 39 37 40 48 45 35 33 41 47 46 98 142 149 153 165 169 167 169 167 169 172 172 171 172 174 171 175
248 240 231 234 256 268 5 305 29 10 18 19 28 47 37 39 25 37 31 28 24 32 30 31 44 36 33 74 115 145 152 164 170 173 172 171 170 171 170 170 177 176 177 178
246 233 266 231 230 42 344 13 9 15 13 7 11 11 32 27 336 353 359 9 9 22 26 28 28 39 37 48 64 121 140 169 165 169 175 179 179 178 176 176 179 176 179 175
226 255 249 258 259 275 302 345 324 332 347 353 354 360 34 43 22 311 320 329 338 5 21 19 21 28 29 30 41 41 90 166 176 171 176 182 183 181 184 186 188 181 180 179
230 175 228 253 278 282 280 290 5 359 353 333 354 3 343 349 304 284 289 303 314 5 47 14 357 9 21 13 20 37 63 143 176 178 179 184 190 192 191 195 198 194 197 195
207 222 219 237 254 255 281 320 345 343 322 323 325 327 300 281 288 272 276 288 298 321 314 342 338 340 349 1 8 14 27 171 167 182 184 187 183 190 193 192 193 205 213 207